Overview Statistics Trail Chart Weather Telemetry Raw packets
 

This is the latest recevied weather packets stored in our database for station/object EA7URS-13. If no packets are shown the sender has not sent any weather packets the latest 10 day(s).

<< 87 88 89 90 91 92 93 >>
Time Temp. Humidity Pressure Rain* Wind** Luminosity Snow
1788018482 33.89° C 17% 1009.5 hPa 0 mm - 340 W/m² -
1788018180 33.89° C 17% 1009.5 hPa 0 mm - 340 W/m² -
1788017879 33.33° C 18% 1009.5 hPa 0 mm - 366 W/m² -
1788017578 33.33° C 18% 1009.5 hPa 0 mm - 366 W/m² -
1788017277 33.33° C 18% 1009.8 hPa 0 mm - 392 W/m² -
1788016976 33.33° C 18% 1009.8 hPa 0 mm - 392 W/m² -
1788016674 33.89° C 17% 1009.8 hPa 0 mm - 423 W/m² -
1788016373 33.89° C 17% 1009.8 hPa 0 mm - 423 W/m² -
1788016072 33.33° C 20% 1010 hPa 0 mm - 447 W/m² -
1788015771 33.33° C 20% 1010 hPa 0 mm - 447 W/m² -
1788015470 34.44° C 19% 1010.3 hPa 0 mm - 474 W/m² -
1788015169 34.44° C 19% 1010.3 hPa 0 mm - 474 W/m² -
1788014868 34.44° C 19% 1010 hPa 0 mm - 498 W/m² -
1788014567 34.44° C 19% 1010 hPa 0 mm - 498 W/m² -
1788014266 34.44° C 19% 1010.5 hPa 0 mm - 522 W/m² -
1788013965 34.44° C 19% 1010.5 hPa 0 mm - 522 W/m² -
1788013664 33.33° C 19% 1010.4 hPa 0 mm - 547 W/m² -
1788013362 33.33° C 19% 1010.4 hPa 0 mm - 547 W/m² -
1788013062 32.78° C 20% 1010.6 hPa 0 mm - 571 W/m² -
1788012761 32.78° C 20% 1010.6 hPa 0 mm - 571 W/m² -
1788012459 32.78° C 20% 1010.6 hPa 0 mm - 591 W/m² -
1788012158 32.78° C 20% 1010.6 hPa 0 mm - 591 W/m² -
1788011857 32.22° C 21% 1010.8 hPa 0 mm - 613 W/m² -
1788011556 32.22° C 21% 1010.8 hPa 0 mm - 613 W/m² -
1788011255 32.78° C 21% 1010.9 hPa 0 mm - 630 W/m² -

* Rain latest hour (hover to see other rain measurements)
** Current wind speed in m/s (hover to see current wind gust speed)